Location: Kerb�bon
(47.7970°N, 3.3487°W)
Time: 10:19:01
(UTC+00:00)

ERS-1 Rocket - Pass Details

Date: 12 May 2021
Orbit: 753 x 757 km, 98.4° (Epoch: 20 June)

Event Time Altitude Azimuth Distance (km) Brightness Sun altitude
Exits shadow 21:30:09 23° 149° (SSE) 1,572 4.0 -14.8°
Maximum altitude 21:33:16 67° 72° (ENE) 822 3.0 -15.1°
Drops below altitude 10° 21:38:17 10° 351° (N) 2,294 6.4 -15.7°
Sets 21:40:36 0° 349° (NNW) 3,224 7.4 -15.9°
